When you browse on this site, cookies collect data to enhance your experience and personalize the content and advertising you see.
Visit our Privacy Policy to learn more. By continuing to use the site, you agree to this use of cookies and data.
  • In Hungary
  • List of Countries
  • For 7 days
  • Water Temperature
  • Satellite Maps
  • Weather Map
  • News
  • Weather Widgets
  • user-avatar
    Login

    Hourly Weather Qiancheng

    Today, 23 April, Tuesday

    Time Temperature Precipitation Wind Pressure Humidity
    00:00 +19°C° 0.2 mm 0 mps 737 mmHg 88%
    01:00 +19°C° 0.2 mm 0 mps 736 mmHg 89%
    02:00 +19°C° 0 mm 0 mps 736 mmHg 89%
    03:00 +21°C° 0 mm 1 mps 736 mmHg 89%
    04:00 +21°C° 0 mm 1 mps 736 mmHg 90%
    05:00 +21°C° 0 mm 1 mps 736 mmHg 89%
    06:00 +20°C° 0 mm 0 mps 736 mmHg 88%
    07:00 +20°C° 0 mm 0 mps 736 mmHg 87%
    08:00 +21°C° 0.1 mm 0 mps 736 mmHg 86%
    09:00 +21°C° 0.1 mm 0 mps 736 mmHg 86%
    10:00 +21°C° 0.1 mm 0 mps 737 mmHg 86%
    11:00 +22°C° 0 mm 0 mps 736 mmHg 83%
    12:00 +23°C° 0 mm 0 mps 736 mmHg 81%
    13:00 +24°C° 0 mm 0 mps 735 mmHg 78%
    14:00 +25°C° 0 mm 0 mps 735 mmHg 77%
    15:00 +26°C° 0 mm 0 mps 734 mmHg 76%
    16:00 +26°C° 0 mm 0 mps 734 mmHg 76%
    17:00 +25°C° 0.6 mm 0 mps 734 mmHg 81%
    18:00 +24°C° 0.6 mm 0 mps 734 mmHg 86%
    19:00 +23°C° 0.6 mm 0 mps 734 mmHg 92%
    20:00 +25°C° 4.8 mm 1 mps 734 mmHg 93%
    21:00 +24°C° 4.8 mm 1 mps 735 mmHg 94%
    22:00 +24°C° 4.8 mm 1 mps 735 mmHg 95%
    23:00 +24°C° 1.5 mm 1 mps 735 mmHg 95%

    Tomorrow, 24 April, Wednesday

    Time Temperature Precipitation Wind Pressure Humidity
    00:00 +25°C° 1.5 mm 1 mps 735 mmHg 95%
    01:00 +25°C° 1.5 mm 1 mps 735 mmHg 95%
    02:00 +25°C° 0.2 mm 1 mps 734 mmHg 94%
    03:00 +25°C° 0.2 mm 2 mps 734 mmHg 93%
    04:00 +25°C° 0.2 mm 2 mps 733 mmHg 92%
    05:00 +26°C° 1.2 mm 2 mps 734 mmHg 91%
    06:00 +26°C° 1.2 mm 1 mps 734 mmHg 90%
    07:00 +27°C° 1.2 mm 1 mps 734 mmHg 88%
    08:00 +28°C° 0 mm 2 mps 735 mmHg 83%
    09:00 +30°C° 0 mm 3 mps 735 mmHg 77%
    10:00 +32°C° 0 mm 4 mps 735 mmHg 71%
    11:00 +33°C° 0 mm 3 mps 735 mmHg 68%
    12:00 +34°C° 0 mm 3 mps 735 mmHg 64%
    13:00 +35°C° 0 mm 2 mps 734 mmHg 60%
    14:00 +35°C° 1 mm 2 mps 734 mmHg 61%
    15:00 +35°C° 1 mm 2 mps 733 mmHg 63%
    16:00 +34°C° 1 mm 2 mps 733 mmHg 65%
    17:00 +32°C° 0.5 mm 1 mps 733 mmHg 70%
    18:00 +30°C° 0.5 mm 1 mps 733 mmHg 76%
    19:00 +28°C° 0.5 mm 1 mps 734 mmHg 82%
    20:00 +28°C° 0.8 mm 1 mps 734 mmHg 84%
    21:00 +25°C° 0.8 mm 0 mps 735 mmHg 86%
    22:00 +25°C° 0.8 mm 0 mps 735 mmHg 88%
    23:00 +24°C° 0.2 mm 0 mps 735 mmHg 89%

    Day after tomorrow, 25 April, Thursday

    Time Temperature Precipitation Wind Pressure Humidity
    00:00 +24°C° 0.2 mm 0 mps 735 mmHg 90%
    01:00 +24°C° 0.2 mm 0 mps 735 mmHg 91%
    02:00 +23°C° 0.3 mm 0 mps 735 mmHg 92%
    03:00 +23°C° 0.3 mm 0 mps 734 mmHg 93%
    04:00 +23°C° 0.3 mm 0 mps 734 mmHg 94%
    05:00 +23°C° 0.8 mm 0 mps 735 mmHg 91%
    06:00 +24°C° 0.8 mm 0 mps 735 mmHg 89%
    07:00 +25°C° 0.8 mm 0 mps 736 mmHg 86%
    08:00 +28°C° 0.2 mm 0 mps 736 mmHg 77%
    09:00 +30°C° 0.2 mm 0 mps 736 mmHg 68%
    10:00 +33°C° 0.2 mm 0 mps 737 mmHg 60%
    11:00 +33°C° 0.7 mm 0 mps 736 mmHg 56%
    12:00 +34°C° 0.7 mm 0 mps 736 mmHg 52%
    13:00 +34°C° 0.7 mm 0 mps 735 mmHg 49%
    14:00 +34°C° 0 mm 0 mps 735 mmHg 49%
    15:00 +34°C° 0 mm 0 mps 734 mmHg 49%
    16:00 +33°C° 0 mm 0 mps 734 mmHg 49%
    17:00 +32°C° 0 mm 0 mps 734 mmHg 54%
    18:00 +30°C° 0 mm 0 mps 734 mmHg 60%
    19:00 +28°C° 0 mm 0 mps 735 mmHg 66%
    20:00 +27°C° 2 mm 0 mps 735 mmHg 73%
    21:00 +28°C° 2 mm 1 mps 736 mmHg 80%
    22:00 +27°C° 2 mm 1 mps 736 mmHg 87%
    23:00 +27°C° 0 mm 1 mps 736 mmHg 87%

    26 April, Friday

    Time Temperature Precipitation Wind Pressure Humidity
    00:00 +24°C° 0 mm 0 mps 735 mmHg 87%
    01:00 +24°C° 0 mm 0 mps 735 mmHg 87%
    02:00 +24°C° 0 mm 0 mps 735 mmHg 88%
    03:00 +24°C° 0 mm 0 mps 735 mmHg 89%
    04:00 +23°C° 0 mm 0 mps 734 mmHg 90%
    05:00 +24°C° 0.3 mm 0 mps 735 mmHg 87%
    06:00 +25°C° 0.3 mm 0 mps 735 mmHg 85%
    07:00 +26°C° 0.3 mm 0 mps 736 mmHg 83%
    08:00 +28°C° 0.4 mm 0 mps 736 mmHg 75%
    09:00 +32°C° 0.4 mm 1 mps 737 mmHg 67%
    10:00 +34°C° 0.4 mm 1 mps 737 mmHg 59%
    11:00 +34°C° 0.6 mm 1 mps 736 mmHg 58%
    12:00 +34°C° 0.6 mm 1 mps 736 mmHg 56%
    13:00 +34°C° 0.6 mm 1 mps 735 mmHg 54%
    14:00 +33°C° 0 mm 1 mps 735 mmHg 56%
    15:00 +34°C° 0 mm 2 mps 735 mmHg 58%
    16:00 +34°C° 0 mm 2 mps 735 mmHg 60%
    17:00 +31°C° 0 mm 2 mps 735 mmHg 65%
    18:00 +30°C° 0 mm 1 mps 735 mmHg 71%
    19:00 +28°C° 0 mm 1 mps 736 mmHg 76%
    20:00 +28°C° 0.1 mm 1 mps 736 mmHg 77%
    21:00 +27°C° 0.1 mm 1 mps 737 mmHg 78%
    22:00 +27°C° 0.1 mm 1 mps 737 mmHg 80%
    23:00 +24°C° 0.1 mm 0 mps 737 mmHg 81%

    27 April, Saturday

    Time Temperature Precipitation Wind Pressure Humidity
    00:00 +24°C° 0.1 mm 0 mps 736 mmHg 83%
    01:00 +24°C° 0.1 mm 0 mps 736 mmHg 85%
    02:00 +23°C° 0 mm 0 mps 736 mmHg 87%
    03:00 +25°C° 0 mm 1 mps 736 mmHg 88%
    04:00 +25°C° 0 mm 1 mps 736 mmHg 90%
    05:00 +25°C° 0 mm 1 mps 737 mmHg 88%
    06:00 +26°C° 0 mm 1 mps 737 mmHg 85%
    07:00 +27°C° 0 mm 1 mps 738 mmHg 83%
    08:00 +28°C° 0 mm 1 mps 738 mmHg 75%
    09:00 +30°C° 0 mm 1 mps 738 mmHg 67%
    10:00 +32°C° 0 mm 1 mps 738 mmHg 59%
    11:00 +34°C° 0.2 mm 2 mps 737 mmHg 56%
    12:00 +35°C° 0.2 mm 3 mps 737 mmHg 53%
    13:00 +35°C° 0.2 mm 3 mps 736 mmHg 50%
    14:00 +35°C° 0.6 mm 3 mps 736 mmHg 53%
    15:00 +34°C° 0.6 mm 3 mps 735 mmHg 56%
    16:00 +34°C° 0.6 mm 2 mps 735 mmHg 59%
    17:00 +31°C° 0.1 mm 2 mps 735 mmHg 65%
    18:00 +30°C° 0.1 mm 2 mps 735 mmHg 70%
    19:00 +28°C° 0.1 mm 2 mps 735 mmHg 76%
    20:00 +28°C° 0 mm 1 mps 735 mmHg 78%
    21:00 +27°C° 0 mm 1 mps 736 mmHg 80%
    22:00 +27°C° 0 mm 1 mps 736 mmHg 82%
    23:00 +27°C° 0 mm 1 mps 735 mmHg 83%

    28 April, Sunday

    Time Temperature Precipitation Wind Pressure Humidity
    00:00 +27°C° 0 mm 1 mps 735 mmHg 83%
    01:00 +27°C° 0 mm 1 mps 735 mmHg 83%
    02:00 +26°C° 0 mm 1 mps 735 mmHg 85%
    03:00 +26°C° 0 mm 1 mps 735 mmHg 86%
    04:00 +25°C° 0 mm 1 mps 735 mmHg 88%
    05:00 +26°C° 0 mm 2 mps 735 mmHg 84%
    06:00 +27°C° 0 mm 3 mps 736 mmHg 81%
    07:00 +28°C° 0 mm 4 mps 736 mmHg 78%
    08:00 +29°C° 0 mm 5 mps 736 mmHg 73%
    09:00 +29°C° 0 mm 5 mps 736 mmHg 69%
    10:00 +30°C° 0 mm 6 mps 736 mmHg 64%
    11:00 +32°C° 0 mm 6 mps 735 mmHg 63%
    12:00 +32°C° 0 mm 6 mps 735 mmHg 62%
    13:00 +32°C° 0 mm 6 mps 734 mmHg 61%
    14:00 +32°C° 0 mm 5 mps 734 mmHg 63%
    15:00 +32°C° 0 mm 4 mps 734 mmHg 64%
    16:00 +31°C° 0 mm 3 mps 733 mmHg 66%
    17:00 +30°C° 0 mm 3 mps 733 mmHg 70%
    18:00 +29°C° 0 mm 3 mps 734 mmHg 74%
    19:00 +28°C° 0 mm 2 mps 734 mmHg 78%
    20:00 +27°C° 0 mm 2 mps 734 mmHg 80%
    21:00 +27°C° 0 mm 1 mps 734 mmHg 82%
    22:00 +26°C° 0 mm 1 mps 735 mmHg 85%
    23:00 +26°C° 0 mm 1 mps 734 mmHg 84%
    Show more